Regional Weather Roundup
Issued by NWS

Home | Current Version | Previous Version | Text Only | Print | Product List | Glossary Off
Versions: 1 2 3 4 5 6 7 8 9 10 11 12 13 14 15 16 17 18 19 20 21 22 23 24 25 26 27 28 29 30 31 32 33 34 35 36 37 38 39 40 41 42 43 44 45 46 47 48 49 50

000
ASUS43 KLSX 191357
RWRMO

WEATHER SUMMARY FOR MISSOURI
NATIONAL WEATHER SERVICE SPRINGFIELD MO
900 AM CDT SAT AUG 19 2017

NOTE: "FAIR" INDICATES FEW OR NO CLOUDS BELOW 12,000 FEET WITH NO
       SIGNIFICANT WEATHER AND/OR OBSTRUCTIONS TO VISIBILITY.
       CURRENT SKY AND/OR WEATHER CONDITIONS ARE NOT AVAILABLE FOR
       CHILLICOTHE AND FARMINGTON.

MOZ001>031-035>038-043-044-053-054-191500-
...NORTHERN AND WESTERN MISSOURI...

CITY           SKY/WX    TMP DP  RH WIND       PRES   REMARKS
KANSAS CTY INT SUNNY     75  69  81 CALM      29.97R
LEE`S SUMMIT   SUNNY     75  72  90 CALM      29.97S
ST JOSEPH      FOG       69  69 100 NE6       29.97R VSB 1/4
CHILLICOTHE      N/A     74  70  87 CALM      29.96S

$$
MOZ066>068-077>081-088>096-101>105-191500-
...SOUTHWEST MISSOURI...

CITY           SKY/WX    TMP DP  RH WIND       PRES   REMARKS
SPRINGFIELD    SUNNY     77  74  90 SW7       30.00S
JOPLIN         PTSUNNY   79  74  84 SW9       29.99F
BRANSON        MOSUNNY   77  72  83 SW6       30.03R

$$
MOZ032>034-039>042-045>050-055>058-069>072-191500-
...CENTRAL MISSOURI...

CITY           SKY/WX    TMP DP  RH WIND       PRES   REMARKS
COLUMBIA       NOT AVBL
JEFFERSON CITY SUNNY     75  71  87 CALM      29.96R
ROLLA          SUNNY     74  70  87 SW7       30.00R
SEDALIA        SUNNY     76  74  93 SW5       29.98R
WARRENSBURG    SUNNY     72  68  88 CALM      29.96S

$$
MOZ051-052-059>065-191500-
...EAST CENTRAL MISSOURI...

CITY           SKY/WX    TMP DP  RH WIND       PRES   REMARKS
ST LOUIS INTL  MOSUNNY   78  69  73 W7        29.96S

$$
MOZ072>076-082>087-097>100-106>115-191500-
...SOUTH CENTRAL AND SOUTHEAST MISSOURI...

CITY           SKY/WX    TMP DP  RH WIND       PRES   REMARKS
CAPE GIRARDEAU NOT AVBL
POPLAR BLUFF   SUNNY     78  71  79 W5        29.96S
WEST PLAINS    SUNNY     77  70  79 W13       30.02S

$$


USA.gov is the U.S. government's official web portal to all federal, state and local government web resources and services.